Location: Litvinovka
(48.6667°N, 34.3500°E)
Time: 07:31:20
(UTC+00:00)

Cosmos 1844 - Pass Details

Date: 18 September 2020
Orbit: 824 x 866 km, 70.9° (Epoch: 21 October)

Event Time Altitude Azimuth Distance (km) Brightness Sun altitude
Rises 17:44:47 0° 189° (S) 3,413 6.7 -19.3°
Reaches altitude 10° 17:47:18 10° 185° (S) 2,475 5.9 -19.7°
Maximum altitude 17:52:47 51° 111° (ESE) 1,053 3.8 -20.5°
Drops below altitude 10° 17:58:14 10° 37° (NE) 2,464 6.0 -21.3°
Sets 18:00:43 0° 32° (NNE) 3,396 6.8 -21.7°
